Regional Weather Roundup
Issued by NWS Jackson, KY

Home | Current Version | Previous Version | Graphics & Text | Print | Product List | Glossary On
Versions: 1 2 3 4 5 6 7 8 9 10 11 12 13 14 15 16 17 18 19 20 21 22 23 24 25 26 27 28 29 30 31 32 33 34 35 36 37 38 39 40 41 42 43 44 45 46 47 48 49 50
000
ASUS43 KJKL 300210
RWRJKL

EAST KENTUCKY HOURLY WEATHER ROUNDUP
NATIONAL WEATHER SERVICE JACKSON KY
1000 PM EDT TUE JUL 29 2014

NOTE: "FAIR" INDICATES FEW OR NO CLOUDS BELOW 12,000 FEET WITH
NO SIGNIFICANT WEATHER AND/OR OBSTRUCTIONS TO VISIBILITY.

* THESE REPORTS ARE NOT UNDER NWS QUALITY CONTROL AND MAY NOT
  REPORT WEATHER SUCH AS PRECIPITATION AND FOG.

KYZ079-080-083-085-087-088-110-112-115-119-120-300300
...EASTERN KENTUCKY...

CITY           SKY/WX    TMP DP  RH WIND       PRES   REMARKS
JACKSON        CLEAR     62  53  72 CALM      30.10R
LONDON         CLEAR     62  54  74 CALM      30.10R
SOMERSET*      CLEAR     61  54  77 CALM      30.10R
MONTICELLO*    CLEAR     58  56  93 CALM      30.11R
WILLIAMSBURG*    N/A     59  57  94 CALM      30.10
MIDDLESBORO*   CLEAR     61  56  82 CALM      30.11R
HARLAN APT*    CLEAR     59  55  88 MISG      30.11R
BLACK MTN*       N/A     52  50  93 N5          N/A
PIKEVILLE APT* CLEAR     61  54  77 NW5       30.10R
BIG SANDY*     CLEAR     61  56  84 CALM      30.09R
MOREHEAD APT*    N/A     63  55  77 CALM      30.11R
$$

KYZ035-036-041-042-044-050-067-078-099-300300
...CENTRAL KENTUCKY...

CITY           SKY/WX    TMP DP  RH WIND       PRES   REMARKS
MT STERLING*   CLEAR     57  55  94 W3        30.11R
FLEMING/MASON* CLEAR     61  55  82 SW6       30.09R
DANVILLE*      CLEAR     59  55  88 CALM      30.10R
RICHMOND*      CLEAR     64  54  68 CALM      30.09R
LEXINGTON      CLEAR     65  55  70 CALM      30.09R
FRANKFORT      CLEAR     63  57  81 CALM      30.07R
$$

KYZ091>093-OHZ055-061-077-WVZ005-015-034-035-042-300300
...SOUTHERN OHIO/WEST VIRGINIA...

CITY           SKY/WX    TMP DP  RH WIND       PRES   REMARKS
COVINGTON      MOCLDY    63  57  81 SW3       30.06S
COLUMBUS       MOCLDY    68  52  56 S5        30.04R
DAYTON         PTCLDY    65  56  72 W3        30.05S
WILMINGTON     CLEAR     59  55  87 SW5       30.05S
HUNTINGTON     CLEAR     61  58  90 SW3       30.07R
CHARLESTON     PTCLDY    62  59  90 CALM      30.07R
PINEVILLE*     CLOUDY    60  59  96 MISG      30.14R
BECKLEY        CLOUDY    60  54  80 N3        30.11R
BLUEFIELD      CLEAR     59  48  67 W6        30.13R
$$

VAZ002-007-008-TNZ017-027-036-066-071-300300
...SOUTHWEST VIRGINIA/EAST TENNESSEE...

CITY           SKY/WX    TMP DP  RH WIND       PRES   REMARKS
WISE*          CLEAR     57  46  67 NW3       30.14R
JONESVILLE*      N/A     59  55  88 CALM      30.12R
ABINGDON*      CLOUDY    62  51  67 CALM      30.11R
BRISTOL        PTCLDY    63  50  62 CALM      30.09R
KNOXVILLE      PTCLDY    66  53  63 CALM      30.08R
OAK RIDGE      CLEAR     64  55  72 CALM      30.10R
CROSSVILLE     CLEAR     62  54  74 CALM      30.12R
NASHVILLE      CLEAR     73  53  49 N3        30.08R
$$

...KEY TO REMARKS...
VSB - VISIBILITY IN MILES
WCI - WIND CHILL INDEX
HX  - HEAT INDEX

$$



USA.gov is the U.S. government's official web portal to all federal, state and local government web resources and services.